[[{"header":{"parameterUnit":"m.s-1","parameterCategory":1,"la1":30.2991,"la2":30.254,"lo1":-89.0895,"lo2":-89.0444,"dy":0.0017,"dx":0.0017,"nx":28,"ny":28,"refTime":"2024-10-05T09:00:00:Z","depth":0,"parameterNumber":2,"parameterNumberName":"U-component_of_WINDS"},"data":[0,0,0,0,0,0,0,0,0,0,0,0,0,0,0,0,0,0,0,0,0,0,0,0,0,0,0,0,0,0,0,0,0,0,0,0,0,0,0,0,0,0,0,0,0,0,0,0,0,0,0,0,0,0,0,0,0,0,-5.1089,-5.1089,0,-5.1115,-5.1116,-5.1116,-5.0992,-5.0989,-5.0985,-5.0982,-5.1008,-5.1012,-5.1016,0,0,0,0,0,0,0,0,0,0,0,0,0,-5.0932,-5.0935,-5.1089,-5.1089,-5.109,-5.1115,-5.1116,-5.1116,-5.0993,-5.0988,-5.0984,-5.098,-5.1007,-5.1012,-5.1017,0,0,0,0,0,0,0,0,0,0,0,0,0,-5.0983,-5.0936,-5.1089,-5.1031,-5.1026,-5.1115,-5.1116,-5.1116,-5.0994,-5.0988,-5.0983,-5.0978,-5.1006,-5.1011,-5.1017,-5.1163,0,0,-5.1036,-5.1039,0,0,0,0,0,0,0,0,-5.098,-5.0989,-5.1039,-5.1035,-5.103,-5.1045,-5.107,-5.1132,-5.0995,-5.1006,-5.0981,-5.0975,-5.1025,-5.1029,-5.1046,-5.1164,-5.1165,-5.1037,-5.104,-5.1043,-5.1045,0,0,0,0,0,0,0,-5.0977,-5.0987,-5.1099,-5.104,-5.1035,-5.1004,-5.1005,-5.1081,-5.1045,-5.1005,-5.0996,-5.1001,-5.1021,-5.104,-5.1046,-5.1166,-5.1036,-5.1042,-5.1046,-5.1048,-5.1406,-5.1411,0,0,0,0,0,0,-5.0981,-5.0985,-5.1098,-5.11,-5.0991,-5.1011,-5.1013,-5.1046,-5.1044,-5.1039,-5.1005,-5.0995,-5.1033,-5.1039,-5.1046,-5.1217,-5.1043,-5.1049,-5.1052,-5.14,-5.1407,-5.1413,0,0,0,0,0,0,-5.0978,-5.0992,-5.1097,-5.104,-5.1051,-5.102,-5.1058,-5.1049,-5.1068,-5.1045,-5.1038,-5.1031,-5.1029,-5.1037,-5.1135,-5.1216,-5.1051,-5.1057,-5.1393,-5.1402,-5.141,-5.1561,0,0,0,0,0,0,-5.0974,-5.0992,-5.1047,-5.1042,-5.1055,-5.1187,-5.1062,-5.1053,-5.1079,-5.1065,-5.1067,-5.1062,-5.1025,-5.1127,-5.1141,-5.1222,-5.1062,-5.1386,-5.1397,-5.1407,-5.1548,-5.1573,-5.1595,0,0,0,0,0,-5.0969,-5.1088,-5.1051,-5.1065,-5.1123,-5.1191,-5.1198,-5.1153,-5.1086,-5.1141,-5.1126,-5.1062,-5.1205,-5.1138,-5.1153,-5.1237,-5.138,-5.1394,-5.1407,-5.1538,-5.1569,-5.1594,0,0,0,0,0,0,-5.1103,-5.1086,-5.1045,-5.1166,-5.1181,-5.117,-5.1238,-5.1187,-5.1221,-5.1208,-5.115,-5.1151,-5.1259,-5.1257,-5.1182,-5.1378,-5.1281,-5.1298,-5.1376,-5.1404,-5.1427,-5.1426,-5.1067,0,0,0,0,0,-5.1147,-5.1204,-5.1186,-5.1295,-5.1304,-5.1271,-5.1299,-5.1262,-5.1276,-5.1282,-5.1274,-5.1289,-5.1337,-5.137,-5.1413,-5.1547,-5.1546,-5.1612,-5.1636,-5.1655,-5.1671,-5.1742,-5.1772,-5.1457,-5.1456,-5.1456,0,0,-5.1237,-5.1235,-5.1275,-5.1322,-5.1329,-5.139,-5.1277,-5.1345,-5.139,-5.1292,-5.1384,-5.1379,-5.1392,-5.1509,-5.156,-5.1511,-5.1757,-5.1672,-5.1687,-5.1692,-5.1759,-5.1789,-5.1815,-5.1465,-5.1464,-5.1462,0,0,-5.1434,-5.1438,-5.1529,-5.1539,-5.1552,-5.1529,-5.1551,-5.1549,-5.1542,-5.1633,-5.1561,-5.1613,-5.1697,-5.171,-5.1728,-5.193,-5.1874,-5.1946,-5.2069,-5.2139,-5.2164,-5.2186,-5.2259,-5.2286,-5.1961,-5.1962,-5.1962,0,-5.1545,-5.1634,-5.1583,-5.1657,-5.168,-5.1594,-5.1687,-5.1698,-5.1725,-5.1743,-5.1687,-5.1792,-5.1795,-5.1914,-5.1964,-5.198,-5.2004,-5.1946,-5.2164,-5.2186,-5.2205,-5.2275,-5.2303,-5.1971,-5.197,-5.1969,-5.1968,0,-5.1771,-5.1833,-5.1905,-5.1934,-5.1965,-5.2048,-5.2009,-5.2047,-5.2008,-5.1991,-5.2086,-5.2086,-5.2128,-5.2154,-5.2116,-5.2268,-5.2237,-5.2174,-5.2076,-5.2245,-5.231,-5.2336,-5.1983,-5.198,-5.1977,-5.1975,0,0,-5.2053,-5.2052,-5.208,-5.2092,-5.21,-5.2148,-5.2227,-5.2269,-5.2302,-5.2323,-5.2389,-5.2463,-5.2405,-5.2425,-5.2388,-5.245,-5.2612,-5.2379,-5.2378,-5.2423,-5.2781,-5.2829,-5.2861,-5.2574,-5.2578,-5.2582,-5.278,0,-5.2246,-5.2382,-5.2339,-5.2476,-5.2534,-5.2453,-5.2522,-5.2535,-5.2521,-5.2568,-5.2552,-5.2606,-5.2525,-5.2537,-5.2594,-5.258,-5.2683,-5.2565,-5.2635,-5.2638,-5.2636,-5.2894,-5.2945,-5.3132,-5.2805,-5.2809,-5.2812,0,-5.2491,-5.2522,-5.2666,-5.2665,-5.2688,-5.2751,-5.2786,-5.2832,-5.2845,-5.283,-5.2854,-5.2804,-5.2882,-5.2783,-5.289,-5.2811,-5.2837,-5.2834,-5.284,-5.2846,-5.2736,-5.2908,-5.319,-5.3219,-5.2851,-5.2848,-5.2845,0,-5.2684,-5.2762,-5.2858,-5.2871,-5.2873,-5.2919,-5.2922,-5.2929,-5.2957,-5.2988,-5.3006,-5.3045,-5.3067,-5.3099,-5.3061,-5.2992,-5.3175,-5.3072,-5.3166,-5.3167,-5.3209,-5.3207,-5.3501,-5.3224,-5.3224,-5.3223,-5.3222,0,-5.2906,-5.2997,-5.2946,-5.3005,-5.3105,-5.3054,-5.3155,-5.3148,-5.3156,-5.3213,-5.3145,-5.32,-5.3146,-5.3197,-5.3168,-5.3262,-5.3272,-5.3263,-5.3255,-5.327,-5.3272,-5.3287,-5.3274,-5.323,-5.3229,-5.3227,-5.3226,0,-5.3139,-5.3108,-5.3208,-5.3201,-5.3202,-5.3276,-5.327,-5.3325,-5.3306,-5.3379,-5.3393,-5.3364,-5.342,-5.3385,-5.3442,-5.3422,-5.3546,-5.3518,-5.3542,-5.3535,-5.3631,-5.3623,-5.3946,-5.3986,-5.3683,-5.3686,-5.3688,0,-5.3283,-5.3352,-5.3353,-5.3386,-5.3393,-5.3448,-5.3476,-5.3429,-5.3461,-5.3482,-5.3535,-5.3585,-5.3622,-5.3715,-5.3699,-5.3742,-5.3716,-5.3826,-5.3722,-5.3736,-5.372,-5.3717,-5.3724,-5.3848,-5.3852,-5.3854,-5.3857,0,-5.3543,-5.3524,-5.3568,-5.3608,-5.3644,-5.3672,-5.3695,-5.3726,-5.3678,-5.3719,-5.3775,-5.3804,-5.3862,-5.3913,-5.3949,-5.3952,-5.3898,-5.389,-5.3914,-5.3931,-5.3942,-5.3939,-5.3601,-5.3883,-5.388,-5.3878,-5.3877,-5.3876,-5.3737,-5.3794,-5.3804,-5.3856,-5.3868,-5.3891,-5.3943,-5.3931,-5.3977,-5.402,-5.3989,-5.4057,-5.4068,-5.4112,-5.4122,-5.4174,-5.4129,-5.4164,-5.4173,-5.4183,-5.4197,-5.3933,-5.418,-5.4179,-5.4178,-5.4178,-5.4177,0,-5.3994,-5.3997,-5.4044,-5.4079,-5.412,-5.4064,-5.4087,-5.4125,-5.4185,-5.42,-5.4239,-5.4304,-5.4353,-5.4341,-5.4386,-5.443,-5.4406,-5.4443,-5.444,-5.4442,-5.4233,-5.4209,-5.4462,-5.4462,-5.4462,-5.4462,-5.4462,-5.4462,-5.4133,-5.4228,-5.4211,-5.4311,-5.4313,-5.4378,-5.4396,-5.4417,-5.443,-5.4506,-5.4547,-5.4538,-5.4543,-5.4588,-5.4631,-5.4626,-5.4646,-5.4693,-5.4679,-5.4485,-5.4457,-5.443,-5.4406,-5.4697,-5.4698,-5.4884,-5.4886,-5.4887]},{"header":{"parameterUnit":"m.s-1","parameterCategory":1,"la1":30.2991,"la2":30.254,"lo1":-89.0895,"lo2":-89.0444,"dy":0.0017,"dx":0.0017,"nx":28,"ny":28,"refTime":"2024-10-05T09:00:00:Z","depth":0,"parameterNumber":3,"parameterNumberName":"V-component_of_WINDS"},"data":[0,0,0,0,0,0,0,0,0,0,0,0,0,0,0,0,0,0,0,0,0,0,0,0,0,0,0,0,0,0,0,0,0,0,0,0,0,0,0,0,0,0,0,0,0,0,0,0,0,0,0,0,0,0,0,0,0,0,-3.0424,-3.0424,0,-3.0477,-3.0477,-3.0478,-3.0454,-3.0452,-3.0451,-3.045,-3.0503,-3.0505,-3.0508,0,0,0,0,0,0,0,0,0,0,0,0,0,-3.0299,-3.0301,-3.0424,-3.0424,-3.0425,-3.0477,-3.0477,-3.0478,-3.0454,-3.0452,-3.0451,-3.0449,-3.0502,-3.0505,-3.0508,0,0,0,0,0,0,0,0,0,0,0,0,0,-3.0353,-3.0302,-3.0424,-3.0419,-3.0419,-3.0477,-3.0477,-3.0478,-3.0454,-3.0452,-3.045,-3.0448,-3.0501,-3.0505,-3.0509,-3.0573,0,0,-3.0521,-3.0523,0,0,0,0,0,0,0,0,-3.035,-3.0357,-3.0419,-3.042,-3.042,-3.0457,-3.0453,-3.051,-3.0455,-3.0441,-3.045,-3.0447,-3.0489,-3.0494,-3.0508,-3.0575,-3.0578,-3.0521,-3.0524,-3.0525,-3.0526,0,0,0,0,0,0,0,-3.0346,-3.0355,-3.0445,-3.042,-3.042,-3.0414,-3.0419,-3.0464,-3.0475,-3.0442,-3.044,-3.0447,-3.0489,-3.0504,-3.0509,-3.0579,-3.0521,-3.0525,-3.0527,-3.0529,-3.0699,-3.0701,0,0,0,0,0,0,-3.0343,-3.0352,-3.0443,-3.0446,-3.0379,-3.0418,-3.0424,-3.0447,-3.0475,-3.0477,-3.0449,-3.0446,-3.0498,-3.0504,-3.0511,-3.0587,-3.0525,-3.0529,-3.0531,-3.0697,-3.07,-3.0702,0,0,0,0,0,0,-3.034,-3.0351,-3.0441,-3.0399,-3.041,-3.0422,-3.0448,-3.0449,-3.0464,-3.048,-3.0482,-3.0463,-3.0497,-3.0505,-3.0557,-3.0588,-3.0531,-3.0534,-3.0695,-3.0698,-3.0701,-3.074,0,0,0,0,0,0,-3.0337,-3.035,-3.0376,-3.0399,-3.0412,-3.0487,-3.045,-3.0451,-3.0471,-3.0468,-3.0493,-3.0496,-3.0496,-3.0552,-3.0561,-3.0593,-3.0537,-3.0692,-3.0696,-3.07,-3.0736,-3.0745,-3.0752,0,0,0,0,0,-3.0332,-3.0385,-3.0377,-3.0388,-3.0444,-3.0489,-3.0496,-3.0496,-3.0474,-3.0499,-3.0509,-3.0495,-3.0583,-3.0557,-3.0568,-3.0601,-3.069,-3.0695,-3.07,-3.0733,-3.0743,-3.0751,0,0,0,0,0,0,-3.0364,-3.0388,-3.0379,-3.0441,-3.0463,-3.0485,-3.0517,-3.0507,-3.0536,-3.0531,-3.0529,-3.0535,-3.0589,-3.06,-3.057,-3.0664,-3.0633,-3.064,-3.0655,-3.0664,-3.0672,-3.0668,-3.0541,0,0,0,0,0,-3.0378,-3.0414,-3.0432,-3.0485,-3.0496,-3.0505,-3.0524,-3.0522,-3.0545,-3.0554,-3.0568,-3.059,-3.0622,-3.0644,-3.0675,-3.0738,-3.0742,-3.0766,-3.0773,-3.0779,-3.0786,-3.0818,-3.0828,-3.0718,-3.0718,-3.0718,0,0,-3.0408,-3.0425,-3.0448,-3.0492,-3.0509,-3.0544,-3.0513,-3.0552,-3.0579,-3.056,-3.061,-3.062,-3.0645,-3.0702,-3.0728,-3.0713,-3.0817,-3.0786,-3.079,-3.0793,-3.0824,-3.0835,-3.0844,-3.0721,-3.0721,-3.072,0,0,-3.048,-3.0498,-3.0543,-3.056,-3.0586,-3.0591,-3.0601,-3.0624,-3.0631,-3.0681,-3.0667,-3.0698,-3.0754,-3.0772,-3.0788,-3.0865,-3.0853,-3.0875,-3.0915,-3.0947,-3.0956,-3.0963,-3.099,-3.1,-3.0882,-3.0882,-3.0882,0,-3.0514,-3.0568,-3.0567,-3.0607,-3.0626,-3.0611,-3.0656,-3.0673,-3.0707,-3.072,-3.0703,-3.0773,-3.0788,-3.0849,-3.0867,-3.0882,-3.0893,-3.0873,-3.0955,-3.0962,-3.0969,-3.0995,-3.1005,-3.0884,-3.0884,-3.0884,-3.0883,0,-3.0608,-3.0645,-3.0678,-3.0712,-3.0735,-3.0778,-3.0782,-3.0805,-3.08,-3.0806,-3.0857,-3.0874,-3.0908,-3.0922,-3.0918,-3.0982,-3.0971,-3.0955,-3.0924,-3.0982,-3.1006,-3.1016,-3.0888,-3.0887,-3.0886,-3.0886,0,0,-3.0703,-3.0734,-3.0746,-3.0761,-3.0787,-3.0816,-3.0857,-3.089,-3.0909,-3.0933,-3.0967,-3.1014,-3.0998,-3.1017,-3.1014,-3.1042,-3.1101,-3.1022,-3.1022,-3.1035,-3.1171,-3.1183,-3.1194,-3.1093,-3.1095,-3.1096,-3.1168,0,-3.0777,-3.0849,-3.0848,-3.0915,-3.0949,-3.0934,-3.097,-3.0989,-3.0996,-3.1025,-3.1032,-3.1065,-3.1042,-3.1053,-3.108,-3.1088,-3.1128,-3.1083,-3.1123,-3.1125,-3.1118,-3.1207,-3.1221,-3.1288,-3.1178,-3.1179,-3.118,0,-3.0873,-3.09,-3.097,-3.099,-3.1004,-3.1036,-3.1066,-3.1094,-3.1115,-3.1118,-3.1138,-3.1131,-3.1171,-3.1139,-3.1194,-3.1163,-3.1179,-3.1186,-3.1188,-3.1192,-3.1156,-3.1212,-3.1309,-3.1319,-3.1195,-3.1194,-3.1193,0,-3.0934,-3.0988,-3.1036,-3.1049,-3.1074,-3.1097,-3.1108,-3.1128,-3.1147,-3.1172,-3.1184,-3.1214,-3.123,-3.1253,-3.1253,-3.123,-3.1309,-3.1277,-3.1311,-3.1311,-3.1329,-3.1328,-3.1429,-3.134,-3.134,-3.1339,-3.1339,0,-3.1017,-3.106,-3.1064,-3.1094,-3.1141,-3.1139,-3.1186,-3.1195,-3.1212,-3.1243,-3.1232,-3.126,-3.1259,-3.1288,-3.1289,-3.1334,-3.1341,-3.1344,-3.1343,-3.1345,-3.1344,-3.1355,-3.1351,-3.1342,-3.1342,-3.1341,-3.1341,0,-3.1093,-3.1098,-3.115,-3.1169,-3.1175,-3.1209,-3.1225,-3.1252,-3.1257,-3.1296,-3.1305,-3.1313,-3.1346,-3.1348,-3.1387,-3.1387,-3.1441,-3.1436,-3.1434,-3.1433,-3.1467,-3.1464,-3.1579,-3.1594,-3.1496,-3.1496,-3.1497,0,-3.1146,-3.1179,-3.1201,-3.1221,-3.1233,-3.1265,-3.1285,-3.1283,-3.1304,-3.133,-3.1354,-3.1386,-3.1412,-3.1465,-3.1474,-3.1503,-3.1498,-3.1536,-3.1502,-3.1502,-3.1498,-3.1496,-3.1498,-3.1543,-3.1544,-3.1545,-3.1546,0,-3.1238,-3.1238,-3.1267,-3.1296,-3.132,-3.1343,-3.1364,-3.138,-3.1381,-3.1405,-3.1439,-3.1459,-3.1497,-3.1529,-3.1557,-3.1568,-3.1557,-3.1556,-3.1566,-3.1567,-3.1565,-3.1566,-3.1452,-3.1554,-3.1553,-3.1552,-3.1552,-3.1551,-3.1304,-3.1332,-3.1351,-3.1383,-3.1399,-3.1419,-3.1446,-3.1453,-3.1482,-3.1513,-3.1511,-3.1548,-3.1566,-3.1603,-3.1616,-3.1644,-3.1631,-3.1645,-3.1648,-3.1652,-3.1655,-3.156,-3.1649,-3.1649,-3.1649,-3.1648,-3.1648,0,-3.1394,-3.1406,-3.1435,-3.1465,-3.149,-3.1478,-3.15,-3.1521,-3.1554,-3.1573,-3.1598,-3.1636,-3.1666,-3.1676,-3.1706,-3.1726,-3.1722,-3.1734,-3.1732,-3.1734,-3.1665,-3.1654,-3.1737,-3.1737,-3.1737,-3.1737,-3.1737,-3.1737,-3.1445,-3.1491,-3.1493,-3.1547,-3.1558,-3.1594,-3.1608,-3.1626,-3.164,-3.1683,-3.1708,-3.1715,-3.173,-3.1759,-3.1786,-3.1788,-3.1799,-3.1813,-3.1813,-3.1748,-3.1739,-3.1731,-3.172,-3.1816,-3.1816,-3.188,-3.1881,-3.1881]}]]